Regional Weather Roundup
Issued by NWS Cleveland, OH

Home | Current Version | Previous Version | Text Only | Print | Product List | Glossary Off
Versions: 1 2 3 4 5 6 7 8 9 10 11 12 13 14 15 16 17 18 19 20 21 22 23 24 25 26 27 28 29 30 31 32 33 34 35 36 37 38 39 40 41 42 43 44 45 46 47 48 49 50

000
ASUS41 KCLE 192200
RWRCLE
OHIO REGIONAL WEATHER ROUNDUP
NATIONAL WEATHER SERVICE WILMINGTON, OH
600 PM EDT SAT APR 19 2014

NOTE: "FAIR" INDICATES FEW OR NO CLOUDS BELOW 12,000 FEET WITH NO
SIGNIFICANT WEATHER AND/OR OBSTRUCTIONS TO VISIBILITY.

OHZ001>008-015>018-024>027-034-035-043-044-192300-
   NORTHWEST OHIO

CITY           SKY/WX    TMP DP  RH WIND       PRES   REMARKS
DEFIANCE       SUNNY     57  23  26 E13G23    30.32F
FINDLAY        SUNNY     55  24  30 NE15      30.32F
TOLEDO EXPRESS SUNNY     53  26  35 E15       30.34F
TOLEDO METCALF SUNNY     51  26  37 E14       30.36F
LIMA           SUNNY     58  27  30 E15       30.30F
$$

OHZ009>014-019>023-028>033-038-089-192300-
   NORTHEAST OHIO

CITY           SKY/WX    TMP DP  RH WIND       PRES   REMARKS
CLE-HOPKINS    SUNNY     51  30  44 N20       30.37F
CLE-LAKEFRONT  SUNNY     45  35  68 NE17G23   30.35F
CUY CO. ARPT   SUNNY     52  30  43 NE15      30.35F
LORAIN-ELYRIA  SUNNY     52  27  38 NE16      30.35F
ASHTABULA      SUNNY     49  27  42 VRB7      30.35F
AKRON-CANTON   MOSUNNY   57  20  23 NE12      30.30F
WOOSTER        NOT AVBL
MANSFIELD      SUNNY     55  28  35 N13       30.31S
YOUNGSTOWN     MOSUNNY   58  27  30 N10       30.30F
$$

OHZ042-051>053-060>062-070>072-077>081-192300-
  SOUTHWEST OHIO

CITY           SKY/WX    TMP DP  RH WIND       PRES   REMARKS
CINC-COVINGTON MOSUNNY   68  33  27 NE9G18    30.24R
CINC-LUNKEN    SUNNY     67  36  31 E9        30.24S
HAMILTON       SUNNY     68  37  32 NE13      30.26S
DAYTON         NOT AVBL
WRIGHT-PAT AFB SUNNY     64  32  30 NE13      30.27S
DAYTON GENERAL SUNNY     65  36  34 E13       30.25F
WILMINGTON     SUNNY     63  32  31 NE14      30.25F
$$

OHZ036-037-039>041-045>050-054>059-063>069-073>076-082>088-192300-
  CENTRAL AND SOUTHEAST OHIO

CITY           SKY/WX    TMP DP  RH WIND       PRES   REMARKS
COLUMBUS       MOSUNNY   65  29  25 NE10G17   30.27S
OSU AIRPORT    SUNNY     62  30  29 NE6G16    30.27S
BOLTON FIELD   SUNNY     63  34  34 NE9       30.27S
RICKENBACK AFB NOT AVBL
NEWARK         SUNNY     64  26  23 VRB7      30.26F
MARION         SUNNY     58  29  33 NE13      30.30F
LANCASTER      SUNNY     66  33  29 NE15      30.26F
ZANESVILLE     MOSUNNY   65  24  21 NE12      30.26F
NEW PHILLY     SUNNY     61  21  21 NE7       30.29S
$$



USA.gov is the U.S. government's official web portal to all federal, state and local government web resources and services.